Weather History for Kansas City International, MO

Change the Weather History Date:

Thursday, April 18, 2013

  Actual Average Record
Temperature  
Mean Temperature 40 °F 56 °F  
Max Temperature 45 °F 67 °F 91 °F (2006)
Min Temperature 34 °F 45 °F 27 °F (1983)
Degree Days  
Heating Degree Days 25 10  
Month to date heating degree days 292 230  
Since 1 July heating degree days 4860 4921  
Cooling Degree Days 0 1  
Month to date cooling degree days 0 12  
Year to date cooling degree days 0 15  
Moisture  
Dew Point 36 °F    
Average Humidity 82    
Maximum Humidity 100    
Minimum Humidity 64    
Precipitation  
Precipitation 0.28 in 0.12 in 2.35 in (1927)
Month to date precipitation 2.80 1.97  
Year to date precipitation 7.64 6.87  
Snow  
Snow 0.00 in 0.00 in 0.50 in (1907)
Month to date snowfall 0.0 0.5  
Since 1 July snowfall 31.3 18.7  
Snow Depth 0.00 in    
Sea Level Pressure  
Sea Level Pressure 29.74 in    
Wind  
Wind Speed 16 mph (NW)    
Max Wind Speed 24 mph    
Max Gust Speed 33 mph    
Visibility 8 miles    
Events Rain , Thunderstorm    
T = Trace of Precipitation, MM = Missing Value Source: NWS Daily Summary

Daily Weather History Graph

Daily Weather History Graph

Search for Another Location

Airport:

Trip Planner

Search our weather history database for the weather conditions in past years. The results will help you decide how hot, cold, wet, or windy it might be!

Date:

Astronomy

Apr. 18, 2013 Rise Set
Actual Time 6:37 AM CDT 7:59 PM CDT
Civil Twilight 6:09 AM CDT 8:27 PM CDT
Nautical Twilight 5:35 AM CDT 9:01 PM CDT
Astronomical Twilight 5:00 AM CDT 9:36 PM CDT
Moon 12:50 PM CDT (4/18) 2:14 AM CDT (4/18)
Length of Visible Light 14h 18m
Length of Day
13h 22m
First Quarter, 52% of the Moon is Illuminated
Apr 18
First Quarter
Apr 25
Full
May 2
Last Quarter
May 9
New
May 17
First Quarter

Hourly Weather History & Observations

Time (CDT) Temp. Windchill Dew Point Humidity Pressure Visibility Wind Dir Wind Speed Gust Speed Precip Events Conditions
12:53 AM 45.0 °F 39.7 °F 45.0 °F 100% 29.70 in 10.0 mi West 10.4 mph - 0.00 in   Overcast
1:40 AM 42.8 °F 35.8 °F 42.8 °F 100% 29.64 in 6.0 mi North 13.8 mph - 0.10 in Rain , Thunderstorm Light Thunderstorms and Rain
1:53 AM 43.0 °F 35.1 °F 41.0 °F 93% 29.70 in 8.0 mi WNW 17.3 mph 23.0 mph 0.13 in Rain , Thunderstorm Light Thunderstorms and Rain
2:04 AM 42.8 °F 36.6 °F 42.8 °F 100% 29.68 in 10.0 mi WNW 11.5 mph 20.7 mph 0.01 in Rain , Thunderstorm Light Thunderstorms and Rain
2:19 AM 42.8 °F 37.0 °F 42.8 °F 100% 29.66 in 10.0 mi NNW 10.4 mph - 0.01 in   Overcast
2:26 AM 42.8 °F 37.5 °F 41.0 °F 93% 29.66 in 10.0 mi NNW 9.2 mph - 0.01 in   Overcast
2:53 AM 42.1 °F 37.7 °F 42.1 °F 100% 29.63 in 10.0 mi North 6.9 mph - 0.01 in Rain Light Rain
3:53 AM 42.1 °F 36.6 °F 41.0 °F 96% 29.60 in 6.0 mi North 9.2 mph - 0.06 in Rain Light Rain
4:53 AM 41.0 °F 33.5 °F 39.9 °F 96% 29.60 in 10.0 mi NNW 13.8 mph - 0.00 in   Overcast
5:53 AM 41.0 °F 33.9 °F 39.9 °F 96% 29.59 in 6.0 mi NNW 12.7 mph - 0.00 in   Light Drizzle
6:53 AM 39.0 °F 31.4 °F 39.0 °F 100% 29.64 in 8.0 mi WNW 12.7 mph - 0.02 in   Light Drizzle
7:19 AM 39.2 °F 32.5 °F 37.4 °F 93% 29.64 in 2.0 mi NW 10.4 mph - 0.00 in   Light Drizzle
7:53 AM 37.9 °F 29.2 °F 37.0 °F 97% 29.64 in 2.0 mi NW 15.0 mph - 0.01 in Rain Light Rain
8:53 AM 37.9 °F 29.2 °F 37.0 °F 97% 29.66 in 2.0 mi NW 15.0 mph 21.9 mph 0.02 in Rain Light Rain
9:53 AM 37.0 °F 27.7 °F 36.0 °F 96% 29.67 in 2.0 mi NW 16.1 mph 25.3 mph 0.02 in Rain Light Rain
10:26 AM 37.4 °F 26.9 °F 35.6 °F 93% 29.68 in 4.0 mi WNW 20.7 mph 28.8 mph 0.01 in   Light Drizzle
10:53 AM 37.0 °F 26.4 °F 36.0 °F 96% 29.71 in 3.0 mi WNW 20.7 mph 27.6 mph 0.01 in   Light Drizzle
11:23 AM 37.4 °F 28.5 °F 37.4 °F 100% 29.70 in 2.5 mi WNW 15.0 mph 23.0 mph 0.00 in Rain Light Rain
11:34 AM 37.4 °F 27.5 °F 35.6 °F 93% 29.71 in 5.0 mi WNW 18.4 mph 26.5 mph 0.00 in Rain Light Rain
11:53 AM 37.0 °F 26.2 °F 36.0 °F 96% 29.72 in 5.0 mi WNW 21.9 mph 27.6 mph 0.00 in   Light Drizzle
12:13 PM 37.4 °F 27.5 °F 35.6 °F 93% 29.72 in 10.0 mi WNW 18.4 mph 29.9 mph 0.00 in   Overcast
12:53 PM 37.9 °F 28.9 °F 36.0 °F 93% 29.76 in 10.0 mi WNW 16.1 mph 26.5 mph 0.00 in   Overcast
1:45 PM 37.4 °F 28.2 °F 35.6 °F 93% 29.76 in 10.0 mi WNW 16.1 mph 27.6 mph 0.00 in   Overcast
1:53 PM 37.9 °F 27.6 °F 35.1 °F 89% 29.77 in 10.0 mi WNW 20.7 mph 27.6 mph 0.00 in   Overcast
2:23 PM 37.4 °F 27.5 °F 35.6 °F 93% 29.77 in 10.0 mi WNW 18.4 mph 29.9 mph 0.00 in   Light Ice Pellets
2:32 PM 37.4 °F 28.2 °F 33.8 °F 87% 29.78 in 10.0 mi WNW 16.1 mph 27.6 mph 0.00 in   Overcast
2:53 PM 37.9 °F 28.5 °F 30.9 °F 76% 29.79 in 10.0 mi WNW 17.3 mph 29.9 mph 0.00 in   Overcast
3:53 PM 37.9 °F 27.9 °F 30.0 °F 73% 29.81 in 10.0 mi WNW 19.6 mph 27.6 mph N/A   Overcast
4:53 PM 37.9 °F 28.9 °F 30.0 °F 73% 29.83 in 10.0 mi WNW 16.1 mph 27.6 mph N/A   Overcast
5:53 PM 39.0 °F 29.6 °F 30.0 °F 70% 29.86 in 10.0 mi WNW 18.4 mph 25.3 mph N/A   Overcast
6:53 PM 39.0 °F 29.9 °F 28.9 °F 67% 29.87 in 10.0 mi WNW 17.3 mph 26.5 mph N/A   Overcast
7:53 PM 37.9 °F 28.2 °F 27.0 °F 65% 29.89 in 10.0 mi WNW 18.4 mph 24.2 mph N/A   Overcast
8:53 PM 37.0 °F 28.1 °F 28.0 °F 70% 29.91 in 10.0 mi WNW 15.0 mph 25.3 mph N/A   Overcast
9:53 PM 37.0 °F 28.1 °F 27.0 °F 67% 29.93 in 10.0 mi WNW 15.0 mph 21.9 mph N/A   Overcast
10:53 PM 37.0 °F 28.5 °F 26.1 °F 65% 29.93 in 10.0 mi WNW 13.8 mph 21.9 mph N/A   Overcast
11:53 PM 36.0 °F 27.5 °F 25.0 °F 64% 29.92 in 10.0 mi NW 12.7 mph 23.0 mph N/A   Overcast